Location: Woodhurst
(52.3667°N, 0.0667°W)
Time: 21:04:43
(UTC+00:00)

SL-8 Rocket - Pass Details

Date: 19 May 2025
Orbit: 955 x 990 km, 82.9° (Epoch: 21 June)

Event Time Altitude Azimuth Distance (km) Brightness Sun altitude
Rises 21:14:56 0° 349° (N) 3,658 8.3 -9.6°
Reaches altitude 10° 21:17:27 10° 350° (N) 2,705 7.4 -9.8°
Maximum altitude 21:23:40 87° 79° (E) 966 4.0 -10.4°
Enters shadow 21:29:41 11° 170° (S) 2,637 5.7 -10.9°
